Location: Asheville, NC
(35.6000°N, 82.5500°W)
Time: 20:38:29
(UTC-04:00)

YUBILEINY - Pass Details

Date: 15 March 2018
Orbit: 1479 x 1508 km, 82.5° (Epoch: 20 June)

Event Time Altitude Azimuth Distance (km) Brightness Sun altitude
Rises 20:00:38 0° 216° (SW) 4,591 ? -5.5°
Reaches altitude 10° 20:03:54 10° 225° (SW) 3,612 ? -6.1°
Maximum altitude 20:11:28 33° 286° (WNW) 2,284 ? -7.7°
Drops below altitude 10° 20:19:06 10° 348° (NNW) 3,622 ? -9.2°
Sets 20:22:25 0° 358° (N) 4,607 ? -9.9°
